Location: El Manguito
(10.2358°N, 67.3634°W)
Time: 14:49:21
(UTC+00:00)

CZ-4 R/B - Pass Details

Date: 01 April 2023
Orbit: 523 x 586 km, 97.7° (Epoch: 01 June)

Event Time Altitude Azimuth Distance (km) Brightness Sun altitude
Exits shadow 23:53:51 46° 125° (SE) 717 1.5 -18.8°
Maximum altitude 23:54:39 57° 78° (ENE) 625 1.2 -19.0°
Drops below altitude 10° 23:58:25 10° 359° (N) 1,779 4.0 -20.0°
Sets 00:00:33 0° 355° (N) 2,678 5.0 -20.5°
